User: anonymous   Login
Location: Unspecified
(0.0000°N, 0.0000°E)
Time: 04:14:12
(UTC+00:00)
Language:

ONEWEB-0275 - Orbit

View from above orbital plane
View from above orbital plane
View from above satellite
View from above satellite

Ground track
Ground track

The orbit is defined by the following mean orbital elements,

1 48993U          26145.27834066 +.00000000 +00000-0 -44155-4 0 00004
2 48993  87.9106 233.3234 0002008  97.1305 263.0054 13.16592900    07
Epoch (UTC): 25 May 2026 06:40:48
Eccentricity: 0.0002008
inclination: 87.9106°
perigee height: 1196 km
apogee height: 1199 km
right ascension of ascending node: 233.3234°
argument of perigee: 97.1305°
revolutions per day: 13.16592900
mean anomaly at epoch: 263.0054°

The dashed part of the orbit path shows where the satellite is in the earth's shadow,  

DLR